GMT,Max TemperatureF,Mean TemperatureF,Min TemperatureF,Max Dew PointF,MeanDew PointF,Min DewpointF,Max Humidity, Mean Humidity, Min Humidity, Max Sea Level PressureIn, Mean Sea Level PressureIn, Min Sea Level PressureIn, Max VisibilityMiles, Mean VisibilityMiles, Min VisibilityMiles, Max Wind SpeedMPH, Mean Wind SpeedMPH, Max Gust SpeedMPH,PrecipitationIn, CloudCover, Events, WindDirDegrees
2010-12-1,33,28,24,32,26,18,100,88,60,29.80,29.78,29.77,6,6,6,24,16,38,0.00,2,,49
2010-12-2,35,32,28,32,27,23,100,84,70,29.92,29.81,29.74,6,6,4,20,14,,0.00,3,,44
2010-12-3,44,34,24,41,31,21,100,84,57,29.95,29.86,29.68,6,6,4,22,7,37,0.00,5,Rain,237
2010-12-4,48,44,41,45,41,37,93,87,76,29.68,29.64,29.59,6,6,2,16,9,26,0.00,7,Rain,268
2010-12-5,42,38,32,41,36,32,100,91,81,29.68,29.67,29.65,6,6,2,8,6,,0.00,5,Rain,45
2010-12-6,39,32,26,32,28,23,93,84,70,29.59,29.56,29.53,6,6,6,12,9,,0.00,1,,60
2010-12-7,39,32,26,32,27,21,93,86,75,29.71,29.62,29.59,6,6,5,12,9,,0.00,2,,65
2010-12-8,39,32,26,30,25,19,100,75,56,30.36,30.00,29.71,6,6,6,23,14,32,0.00,2,,47
2010-12-9,46,36,26,36,31,21,93,77,57,30.60,30.53,30.39,6,6,6,10,7,,0.00,4,,346
2010-12-10,46,44,42,39,37,34,81,76,70,30.60,30.57,30.51,6,6,6,8,6,,0.00,8,,304
2010-12-11,46,44,41,41,39,37,100,83,76,30.48,30.35,30.21,6,6,1,8,5,,0.00,8,,358
2010-12-12,46,44,41,41,37,34,93,77,66,30.21,30.19,30.15,6,6,6,18,12,30,0.00,7,,103
2010-12-13,46,40,33,39,36,30,87,79,66,30.39,30.26,29.56,6,6,6,18,14,30,0.00,5,,89
2010-12-14,44,37,30,37,32,27,93,84,71,30.66,30.54,30.39,6,6,6,16,8,,0.00,2,Rain,44
2010-12-15,44,40,37,37,35,32,87,76,61,30.69,30.63,30.48,6,6,6,12,8,,0.00,5,Rain,26
2010-12-16,48,42,35,45,36,27,93,77,61,30.45,30.03,29.74,6,6,3,25,15,40,0.00,7,Rain,325
2010-12-17,37,35,33,32,27,21,93,72,52,29.74,29.60,29.36,6,6,2,17,11,31,0.00,4,Snow,330
2010-12-18,41,32,24,32,27,21,93,74,53,29.36,29.31,29.27,6,6,4,22,11,37,0.00,3,Snow,336
2010-12-19,37,34,30,34,30,27,100,85,65,29.39,29.27,29.12,6,5,0,26,16,40,0.00,6,Rain-Snow,81
2010-12-20,42,40,37,37,34,30,93,81,70,29.53,29.40,29.33,6,6,3,25,12,28,0.00,5,,310
2010-12-21,39,34,28,30,28,23,93,82,65,29.65,29.60,29.53,6,6,6,9,6,,0.00,1,,59
2010-12-22,35,29,23,32,28,21,100,87,70,29.80,29.71,29.65,6,6,4,15,8,28,0.00,2,Snow,36
2010-12-23,35,32,30,34,31,25,100,94,65,30.04,29.92,29.80,6,6,6,22,16,28,0.00,6,,45
2010-12-24,39,32,26,34,27,21,100,82,56,30.27,30.16,30.04,6,6,6,15,11,,0.00,2,,47
2010-12-25,39,31,23,32,26,21,100,83,69,30.42,30.36,30.27,6,6,6,13,7,,0.00,2,,93
2010-12-26,44,40,35,37,32,27,76,71,65,30.39,30.22,30.01,6,6,6,23,11,37,0.00,7,,179
2010-12-27,51,48,44,50,44,39,100,90,81,29.98,29.80,29.68,6,4,0,26,20,37,0.00,8,Fog-Rain,187
2010-12-28,51,50,50,52,50,50,100,97,94,29.98,29.87,29.74,4,2,0,15,11,,0.00,7,Fog-Rain,214
2010-12-29,51,50,48,52,49,46,100,98,93,30.06,30.01,29.98,4,1,0,15,8,,0.00,8,Fog,149
2010-12-30,48,46,44,46,44,41,93,88,81,30.15,30.10,30.06,6,5,3,28,19,44,0.00,7,,92
2010-12-31,44,43,42,41,39,37,93,86,81,30.27,30.22,30.15,6,6,4,30,23,40,0.00,7,,93